Weather History for Columbus AFB, MS

Change the Weather History Date:

Wednesday, October 9, 2013

  Actual Average Record
Temperature  
Mean Temperature 67 °F -  
Max Temperature 75 °F 75 °F 89 °F (1997)
Min Temperature 59 °F 53 °F 32 °F (2000)
Cooling Degree Days 2    
Growing Degree Days 17 (Base 50)    
Moisture  
Dew Point 62 °F    
Average Humidity 88    
Maximum Humidity 100    
Minimum Humidity 67    
Precipitation  
Precipitation 0.05 in - - ()
Sea Level Pressure  
Sea Level Pressure 30.11 in    
Wind  
Wind Speed 5 mph (East)    
Max Wind Speed 23 mph    
Max Gust Speed 70 mph    
Visibility 8 miles    
Events Fog    
Averages and records for this station are not official NWS values.
T = Trace of Precipitation, MM = Missing Value Source: NWS Daily Summary

Daily Weather History Graph

Daily Weather History Graph

Search for Another Location

Airport:

Trip Planner

Search our weather history database for the weather conditions in past years. The results will help you decide how hot, cold, wet, or windy it might be!

Date:

Astronomy

Oct. 09, 2013 Rise Set
Actual Time 6:54 AM CDT 6:27 PM CDT
Civil Twilight 6:29 AM CDT 6:52 PM CDT
Nautical Twilight 6:00 AM CDT 7:20 PM CDT
Astronomical Twilight 5:31 AM CDT 7:49 PM CDT
Moon 11:38 AM CDT (10/9) 10:12 PM CDT (10/9)
Length of Visible Light 12h 22m
Length of Day
11h 33m
Waxing Crescent, 25% of the Moon is Illuminated
Oct 9
Waxing Crescent
Oct 11
First Quarter
Oct 18
Full
Oct 26
Last Quarter
Nov 3
New

Hourly Weather History & Observations

Time (CDT) Temp. Dew Point Humidity Pressure Visibility Wind Dir Wind Speed Gust Speed Precip Events Conditions
12:58 AM 59.5 °F 58.8 °F 97% 30.06 in 10.0 mi South 2.3 mph - N/A   Partly Cloudy
1:58 AM 61.3 °F 60.3 °F 96% 30.07 in 10.0 mi SSE 2.3 mph - N/A   Partly Cloudy
2:58 AM 61.7 °F 60.8 °F 97% 30.07 in 10.0 mi ESE 2.3 mph - N/A   Clear
3:13 AM 62.6 °F 60.8 °F 94% 30.06 in 10.0 mi ESE 5.8 mph - N/A   Mostly Cloudy
3:58 AM 63.7 °F 62.4 °F 96% 30.07 in 10.0 mi SE 5.8 mph - N/A   Overcast
4:58 AM 63.9 °F 61.2 °F 91% 30.09 in 10.0 mi ESE 5.8 mph - N/A   Overcast
5:28 AM 62.6 °F 60.8 °F 94% 30.08 in 10.0 mi ESE 3.5 mph - N/A   Scattered Clouds
5:58 AM 61.9 °F 59.9 °F 93% 30.10 in 10.0 mi ESE 3.5 mph - N/A   Partly Cloudy
6:28 AM 62.6 °F 60.8 °F 94% 30.10 in 10.0 mi ESE 3.5 mph - N/A   Mostly Cloudy
6:58 AM 62.2 °F 60.3 °F 93% 30.12 in 10.0 mi ESE 4.6 mph - N/A   Overcast
7:23 AM 62.6 °F 59.0 °F 88% 30.12 in 10.0 mi ESE 3.5 mph - N/A   Scattered Clouds
7:58 AM 62.6 °F 60.3 °F 92% 30.14 in 10.0 mi ESE 5.8 mph - N/A   Mostly Cloudy
8:03 AM 62.6 °F 60.8 °F 94% 30.13 in 10.0 mi SE 6.9 mph - N/A   Scattered Clouds
8:58 AM 65.1 °F 60.4 °F 85% 30.16 in 10.0 mi SE 11.5 mph - N/A   Scattered Clouds
9:03 AM 66.2 °F 60.8 °F 83% 30.15 in 10.0 mi SE 10.4 mph - N/A   Mostly Cloudy
9:08 AM 66.2 °F 60.8 °F 83% 30.15 in 10.0 mi SE 10.4 mph - N/A   Mostly Cloudy
9:58 AM 66.2 °F 60.8 °F 83% 30.16 in 10.0 mi SSE 11.5 mph - N/A   Overcast
10:58 AM 66.2 °F 60.8 °F 83% 30.16 in 10.0 mi SSE 11.5 mph - N/A   Overcast
11:58 AM 66.2 °F 60.8 °F 83% 30.16 in 10.0 mi SSE 11.5 mph - N/A   Overcast
12:41 PM 73.4 °F 62.6 °F 69% 30.14 in 10.0 mi South 6.9 mph - N/A   Overcast
12:55 PM 73.4 °F 62.6 °F 69% 30.14 in 10.0 mi South 6.9 mph - N/A   Overcast
1:48 PM 73.4 °F 62.6 °F 69% 30.12 in 10.0 mi East 3.5 mph - N/A   Overcast
1:58 PM 72.9 °F 62.1 °F 69% 30.13 in 10.0 mi Calm Calm - N/A   Overcast
2:23 PM 73.4 °F 62.6 °F 69% 30.11 in 10.0 mi SSW 2.3 mph - N/A   Overcast
2:33 PM 73.4 °F 62.6 °F 69% 30.11 in 10.0 mi Calm Calm - N/A   Overcast
2:58 PM 74.1 °F 63.1 °F 68% 30.11 in 10.0 mi WNW 4.6 mph - N/A   Overcast
3:03 PM 73.4 °F 62.6 °F 69% 30.10 in 10.0 mi Variable 1.2 mph - N/A   Overcast
3:08 PM 73.4 °F 62.6 °F 69% 30.11 in 10.0 mi Calm Calm - N/A   Overcast
3:43 PM 73.4 °F 62.6 °F 69% 30.10 in 10.0 mi North 4.6 mph - N/A   Overcast
3:48 PM 73.4 °F 62.6 °F 69% 30.10 in 10.0 mi NNW 3.5 mph - N/A   Overcast
3:58 PM 74.1 °F 63.1 °F 68% 30.11 in 10.0 mi North 3.5 mph - N/A   Overcast
4:28 PM 75.2 °F 64.4 °F 69% 30.10 in 10.0 mi North 5.8 mph - N/A   Scattered Clouds
4:58 PM 75.0 °F 63.5 °F 67% 30.10 in 10.0 mi NE 3.5 mph - N/A   Clear
5:58 PM 73.0 °F 63.7 °F 72% 30.10 in 10.0 mi North 4.6 mph - N/A   Clear
6:23 PM 71.6 °F 64.4 °F 78% 30.09 in 10.0 mi NNW 4.6 mph - N/A   Mostly Cloudy
6:58 PM 70.0 °F 64.6 °F 83% 30.10 in 10.0 mi North 4.6 mph - N/A   Mostly Cloudy
7:23 PM 69.8 °F 64.4 °F 83% 30.09 in 10.0 mi North 4.6 mph - N/A   Mostly Cloudy
7:33 PM 69.8 °F 64.4 °F 83% 30.09 in 10.0 mi North 3.5 mph - N/A   Mostly Cloudy
7:43 PM 68.0 °F 64.4 °F 88% 30.10 in 10.0 mi North 3.5 mph - N/A   Mostly Cloudy
7:48 PM 68.0 °F 64.4 °F 88% 30.10 in 10.0 mi North 2.3 mph - N/A   Mostly Cloudy
7:53 PM 68.0 °F 64.4 °F 88% 30.10 in 10.0 mi NNE 2.3 mph - N/A   Mostly Cloudy
7:58 PM 68.9 °F 64.6 °F 86% 30.11 in 10.0 mi North 3.5 mph - N/A   Scattered Clouds
8:58 PM 66.9 °F 64.2 °F 91% 30.12 in 10.0 mi Calm Calm - N/A   Clear
9:58 PM 64.4 °F 64.4 °F 100% 30.12 in 10.0 mi Calm Calm - N/A   Clear
10:12 PM 62.6 °F 62.6 °F 100% 30.11 in 5.0 mi NNW 23.0 mph 70.2 mph N/A   Clear
10:23 PM 62.6 °F 62.6 °F 100% 30.11 in 10.0 mi East 17.3 mph - N/A   Clear
10:24 PM 62.6 °F 62.6 °F 100% 30.11 in 10.0 mi ESE 17.3 mph - N/A   Clear
10:25 PM 62.6 °F 62.6 °F 100% 30.11 in 10.0 mi WSW 16.1 mph - N/A   Clear
10:26 PM 62.6 °F 62.6 °F 100% 30.11 in 10.0 mi NW 12.7 mph 17.3 mph N/A   Clear
10:41 PM 62.6 °F 62.6 °F 100% 30.11 in 4.0 mi Calm Calm - N/A   Clear
10:46 PM 62.6 °F 62.6 °F 100% 30.11 in 5.0 mi Calm Calm - N/A   Clear
10:51 PM 62.6 °F 62.6 °F 100% 30.11 in 1.0 mi North - - N/A   Clear
10:56 PM 62.6 °F 62.6 °F 100% 30.11 in 0.5 mi Calm Calm - N/A Fog Fog
10:58 PM 62.6 °F 62.6 °F 100% 30.12 in 0.2 mi Calm Calm - 0.05 in Fog Fog
11:03 PM 60.8 °F 60.8 °F 100% 30.11 in 0.2 mi Calm Calm - N/A Fog Fog
11:08 PM 60.8 °F 60.8 °F 100% 30.11 in 0.5 mi Calm Calm - N/A Fog Fog
11:18 PM 62.6 °F 62.6 °F 100% 30.11 in 0.5 mi Calm Calm - N/A Fog Fog
11:23 PM 62.6 °F 62.6 °F 100% 30.11 in 1.2 mi Calm Calm - N/A   Clear
11:28 PM 62.6 °F 62.6 °F 100% 30.10 in 3.0 mi Calm Calm - N/A   Clear
11:33 PM 60.8 °F 60.8 °F 100% 30.10 in 7.0 mi Calm Calm - N/A   Clear
11:43 PM 60.8 °F 60.8 °F 100% 30.10 in 1.2 mi Calm Calm - N/A   Clear
11:48 PM 60.8 °F 60.8 °F 100% 30.10 in 1.0 mi NE 3.5 mph - N/A   Clear
11:53 PM 62.6 °F 62.6 °F 100% 30.10 in 2.5 mi NE 2.3 mph - N/A   Clear
11:59 PM 61.9 °F 61.9 °F 100% 30.11 in 9.0 mi NE 2.3 mph - N/A   Clear